Weather History for Salina, KS

Change the Weather History Date:

Saturday, April 20, 2013

  Actual Average Record
Temperature  
Mean Temperature 50 °F 57 °F  
Max Temperature 65 °F 69 °F 98 °F (1902)
Min Temperature 35 °F 45 °F 21 °F (1953)
Degree Days  
Heating Degree Days 15 9  
Month to date heating degree days 338 241  
Since 1 July heating degree days 4682 4691  
Cooling Degree Days 0 1  
Month to date cooling degree days 2 12  
Year to date cooling degree days 2 14  
Moisture  
Dew Point 32 °F    
Average Humidity 53    
Maximum Humidity 70    
Minimum Humidity 36    
Precipitation  
Precipitation 0.00 in 0.10 in 3.25 in (1976)
Month to date precipitation 1.77 1.93  
Year to date precipitation 5.66 6.12  
Sea Level Pressure  
Sea Level Pressure 30.08 in    
Wind  
Wind Speed 13 mph (ESE)    
Max Wind Speed 28 mph    
Max Gust Speed 33 mph    
Visibility 10 miles    
Events      
T = Trace of Precipitation, MM = Missing Value Source: NWS Daily Summary

Daily Weather History Graph

Daily Weather History Graph

Search for Another Location

Airport:

Trip Planner

Search our weather history database for the weather conditions in past years. The results will help you decide how hot, cold, wet, or windy it might be!

Date:

Astronomy

Apr. 20, 2013 Rise Set
Actual Time 6:46 AM CDT 8:12 PM CDT
Civil Twilight 6:18 AM CDT 8:40 PM CDT
Nautical Twilight 5:45 AM CDT 9:14 PM CDT
Astronomical Twilight 5:10 AM CDT 9:49 PM CDT
Moon 3:00 PM CDT (4/20) 3:33 AM CDT (4/20)
Length of Visible Light 14h 21m
Length of Day
13h 25m
Waxing Gibbous, 71% of the Moon is Illuminated
Apr 20
Waxing Gibbous
Apr 25
Full
May 2
Last Quarter
May 9
New
May 17
First Quarter

Hourly Weather History & Observations

Time (CDT) Temp. Windchill Dew Point Humidity Pressure Visibility Wind Dir Wind Speed Gust Speed Precip Events Conditions
12:53 AM 41.0 °F - 28.0 °F 60% 30.12 in 10.0 mi Calm Calm - N/A   Clear
1:53 AM 41.0 °F 38.0 °F 28.0 °F 60% 30.12 in 10.0 mi East 4.6 mph - N/A   Clear
2:53 AM 39.0 °F 33.4 °F 28.0 °F 65% 30.11 in 10.0 mi East 8.1 mph - N/A   Clear
3:53 AM 37.9 °F 33.5 °F 28.0 °F 68% 30.12 in 10.0 mi East 5.8 mph - N/A   Clear
4:53 AM 37.0 °F 31.0 °F 26.1 °F 65% 30.12 in 10.0 mi East 8.1 mph - N/A   Clear
5:53 AM 36.0 °F 29.6 °F 26.1 °F 67% 30.12 in 10.0 mi East 8.1 mph - N/A   Clear
6:53 AM 35.1 °F 28.6 °F 26.1 °F 70% 30.13 in 10.0 mi ESE 8.1 mph - N/A   Mostly Cloudy
7:53 AM 37.0 °F 29.3 °F 25.0 °F 62% 30.14 in 10.0 mi East 11.5 mph - N/A   Clear
8:53 AM 39.9 °F 31.8 °F 27.0 °F 60% 30.14 in 10.0 mi ESE 15.0 mph - N/A   Clear
9:53 AM 46.0 °F 40.2 °F 28.0 °F 50% 30.14 in 10.0 mi East 12.7 mph 21.9 mph N/A   Clear
10:53 AM 48.0 °F - 28.9 °F 48% 30.14 in 10.0 mi East 17.3 mph - N/A   Clear
11:53 AM 53.1 °F - 30.9 °F 43% 30.12 in 10.0 mi ESE 17.3 mph 26.5 mph N/A   Clear
12:53 PM 55.0 °F - 33.1 °F 43% 30.09 in 10.0 mi ESE 17.3 mph 25.3 mph N/A   Scattered Clouds
1:53 PM 59.0 °F - 34.0 °F 39% 30.06 in 10.0 mi ESE 19.6 mph 28.8 mph N/A   Partly Cloudy
2:53 PM 62.1 °F - 35.1 °F 37% 30.04 in 10.0 mi ESE 18.4 mph 26.5 mph N/A   Clear
3:53 PM 62.1 °F - 35.1 °F 37% 30.02 in 10.0 mi SE 19.6 mph - N/A   Partly Cloudy
4:53 PM 63.0 °F - 35.1 °F 35% 30.00 in 10.0 mi SE 23.0 mph 31.1 mph N/A   Partly Cloudy
5:53 PM 61.0 °F - 36.0 °F 39% 30.00 in 10.0 mi SE 20.7 mph 28.8 mph N/A   Partly Cloudy
6:53 PM 59.0 °F - 37.9 °F 46% 30.02 in 10.0 mi ESE 12.7 mph - N/A   Mostly Cloudy
7:53 PM 57.0 °F - 39.0 °F 51% 30.02 in 10.0 mi ESE 13.8 mph - N/A   Overcast
8:53 PM 55.9 °F - 39.9 °F 55% 30.04 in 10.0 mi ESE 8.1 mph - N/A   Overcast
9:53 PM 55.0 °F - 39.9 °F 57% 30.06 in 10.0 mi SE 12.7 mph - N/A   Overcast
10:53 PM 54.0 °F - 39.9 °F 59% 30.07 in 10.0 mi SE 10.4 mph - N/A   Overcast
11:53 PM 55.0 °F - 39.9 °F 57% 30.06 in 10.0 mi SE 16.1 mph - N/A   Overcast